Time,TemperatureF,DewpointF,PressureIn,WindDirection,WindDirectionDegrees,WindSpeedMPH,WindSpeedGustMPH,Humidity,HourlyPrecipIn,Conditions,Clouds,dailyrainin,SoftwareType,DateUTC
2013-04-08 00:09:00,70.7,66.0,30.11,ENE,60,9.0,10.0,84,0.00,,,0.00,weatherlink.com 1.10,2013-04-08 04:09:00,
2013-04-08 00:24:00,70.8,65.0,30.11,ENE,61,5.0,10.0,83,0.00,,,0.00,weatherlink.com 1.10,2013-04-08 04:24:00,
2013-04-08 00:39:00,70.8,65.0,30.11,ENE,65,5.0,7.0,83,0.00,,,0.00,weatherlink.com 1.10,2013-04-08 04:39:00,
2013-04-08 00:54:00,70.6,65.0,30.10,ENE,59,4.0,9.0,82,0.00,,,0.00,weatherlink.com 1.10,2013-04-08 04:54:00,
2013-04-08 01:09:00,70.5,65.0,30.09,ENE,76,4.0,8.0,82,0.00,,,0.00,weatherlink.com 1.10,2013-04-08 05:09:00,
2013-04-08 01:24:00,70.2,64.0,30.09,ENE,67,5.0,8.0,81,0.00,,,0.00,weatherlink.com 1.10,2013-04-08 05:24:00,
2013-04-08 01:39:00,69.8,64.0,30.08,ENE,64,7.0,7.0,82,0.00,,,0.00,weatherlink.com 1.10,2013-04-08 05:39:00,
2013-04-08 01:54:00,69.3,64.0,30.08,ENE,60,3.0,6.0,82,0.00,,,0.00,weatherlink.com 1.10,2013-04-08 05:54:00,
2013-04-08 02:09:00,69.0,64.0,30.09,ENE,62,1.0,8.0,83,0.00,,,0.00,weatherlink.com 1.10,2013-04-08 06:09:00,
2013-04-08 02:24:00,68.7,63.0,30.08,ENE,64,4.0,6.0,83,0.00,,,0.00,weatherlink.com 1.10,2013-04-08 06:24:00,
2013-04-08 02:39:00,68.5,64.0,30.08,ENE,64,4.0,6.0,84,0.00,,,0.00,weatherlink.com 1.10,2013-04-08 06:39:00,
2013-04-08 02:54:00,68.4,63.0,30.07,ENE,63,1.0,7.0,84,0.00,,,0.00,weatherlink.com 1.10,2013-04-08 06:54:00,
2013-04-08 03:09:00,68.3,63.0,30.07,ENE,63,5.0,6.0,84,0.00,,,0.00,weatherlink.com 1.10,2013-04-08 07:09:00,
2013-04-08 03:24:00,68.0,63.0,30.07,ENE,63,3.0,8.0,84,0.00,,,0.00,weatherlink.com 1.10,2013-04-08 07:24:00,
2013-04-08 03:39:00,67.5,63.0,30.07,ENE,63,3.0,4.0,85,0.00,,,0.00,weatherlink.com 1.10,2013-04-08 07:39:00,
2013-04-08 03:54:00,67.1,63.0,30.06,ENE,63,2.0,3.0,86,0.00,,,0.00,weatherlink.com 1.10,2013-04-08 07:54:00,
2013-04-08 04:09:00,66.6,62.0,30.05,ENE,63,4.0,6.0,86,0.00,,,0.00,weatherlink.com 1.10,2013-04-08 08:09:00,
2013-04-08 04:40:00,66.1,62.0,30.05,NE,48,1.0,6.0,87,0.00,,,0.00,weatherlink.com 1.10,2013-04-08 08:40:00,
2013-04-08 04:54:00,66.0,62.0,30.06,NE,56,2.0,5.0,88,0.00,,,0.00,weatherlink.com 1.10,2013-04-08 08:54:00,
2013-04-08 05:10:00,65.8,62.0,30.06,ENE,72,5.0,6.0,88,0.00,,,0.00,weatherlink.com 1.10,2013-04-08 09:10:00,
2013-04-08 05:25:00,65.9,62.0,30.06,ENE,77,1.0,4.0,88,0.00,,,0.00,weatherlink.com 1.10,2013-04-08 09:25:00,
2013-04-08 05:55:00,65.5,62.0,30.06,ENE,68,4.0,7.0,88,0.00,,,0.00,weatherlink.com 1.10,2013-04-08 09:55:00,
2013-04-08 06:10:00,65.3,62.0,30.06,ENE,62,2.0,7.0,89,0.00,,,0.00,weatherlink.com 1.10,2013-04-08 10:10:00,
2013-04-08 06:25:00,65.0,62.0,30.07,ENE,62,1.0,6.0,89,0.00,,,0.00,weatherlink.com 1.10,2013-04-08 10:25:00,
2013-04-08 06:40:00,64.9,62.0,30.07,ENE,63,7.0,8.0,89,0.00,,,0.00,weatherlink.com 1.10,2013-04-08 10:40:00,
2013-04-08 06:55:00,64.9,62.0,30.08,ENE,64,3.0,5.0,89,0.00,,,0.00,weatherlink.com 1.10,2013-04-08 10:55:00,
2013-04-08 07:10:00,64.7,62.0,30.09,ENE,64,4.0,7.0,89,0.00,,,0.00,weatherlink.com 1.10,2013-04-08 11:10:00,
2013-04-08 07:25:00,64.6,61.0,30.08,ENE,64,4.0,6.0,89,0.00,,,0.00,weatherlink.com 1.10,2013-04-08 11:25:00,
2013-04-08 07:40:00,64.7,62.0,30.09,ENE,65,6.0,8.0,90,0.00,,,0.00,weatherlink.com 1.10,2013-04-08 11:40:00,
2013-04-08 07:55:00,65.2,62.0,30.09,ENE,57,6.0,8.0,90,0.00,,,0.00,weatherlink.com 1.10,2013-04-08 11:55:00,
2013-04-08 08:10:00,65.7,62.0,30.10,ENE,62,7.0,7.0,89,0.00,,,0.00,weatherlink.com 1.10,2013-04-08 12:10:00,
2013-04-08 08:25:00,66.4,63.0,30.10,ENE,65,2.0,8.0,89,0.00,,,0.00,weatherlink.com 1.10,2013-04-08 12:25:00,
2013-04-08 08:40:00,67.6,64.0,30.11,NE,55,5.0,9.0,88,0.00,,,0.00,weatherlink.com 1.10,2013-04-08 12:40:00,
2013-04-08 08:55:00,69.0,65.0,30.11,NE,56,8.0,11.0,86,0.00,,,0.00,weatherlink.com 1.10,2013-04-08 12:55:00,
2013-04-08 09:10:00,70.1,65.0,30.11,East,87,5.0,12.0,85,0.00,,,0.00,weatherlink.com 1.10,2013-04-08 13:10:00,
2013-04-08 09:25:00,71.4,66.0,30.11,East,84,9.0,10.0,83,0.00,,,0.00,weatherlink.com 1.10,2013-04-08 13:25:00,
2013-04-08 09:40:00,72.7,67.0,30.11,ENE,63,8.0,13.0,81,0.00,,,0.00,weatherlink.com 1.10,2013-04-08 13:40:00,
2013-04-08 09:55:00,74.0,67.0,30.12,East,93,7.0,12.0,78,0.00,,,0.00,weatherlink.com 1.10,2013-04-08 13:55:00,
2013-04-08 10:10:00,75.1,67.0,30.12,East,85,9.0,11.0,75,0.00,,,0.00,weatherlink.com 1.10,2013-04-08 14:10:00,
2013-04-08 10:25:00,76.2,67.0,30.12,ESE,107,7.0,12.0,72,0.00,,,0.00,weatherlink.com 1.10,2013-04-08 14:25:00,
2013-04-08 10:40:00,76.7,66.0,30.13,NE,56,7.0,13.0,70,0.00,,,0.00,weatherlink.com 1.10,2013-04-08 14:40:00,
2013-04-08 10:55:00,77.8,66.0,30.12,ENE,66,8.0,14.0,68,0.00,,,0.00,weatherlink.com 1.10,2013-04-08 14:55:00,
2013-04-08 11:10:00,78.8,66.0,30.12,ESE,117,3.0,12.0,64,0.00,,,0.00,weatherlink.com 1.10,2013-04-08 15:10:00,
2013-04-08 11:25:00,79.6,65.0,30.12,NE,54,10.0,15.0,62,0.00,,,0.00,weatherlink.com 1.10,2013-04-08 15:25:00,
2013-04-08 11:40:00,81.0,66.0,30.12,ENE,66,7.0,14.0,60,0.00,,,0.00,weatherlink.com 1.10,2013-04-08 15:40:00,
2013-04-08 11:55:00,81.8,66.0,30.13,ESE,106,8.0,10.0,59,0.00,,,0.00,weatherlink.com 1.10,2013-04-08 15:55:00,
2013-04-08 12:10:00,83.0,66.0,30.12,SSE,150,7.0,13.0,56,0.00,,,0.00,weatherlink.com 1.10,2013-04-08 16:10:00,
2013-04-08 12:26:00,83.6,66.0,30.12,NE,37,7.0,12.0,55,0.00,,,0.00,weatherlink.com 1.10,2013-04-08 16:26:00,
2013-04-08 12:41:00,84.8,67.0,30.11,NE,36,8.0,10.0,55,0.00,,,0.00,weatherlink.com 1.10,2013-04-08 16:41:00,
2013-04-08 12:56:00,85.6,66.0,30.11,NE,35,8.0,12.0,52,0.00,,,0.00,weatherlink.com 1.10,2013-04-08 16:56:00,
2013-04-08 13:11:00,86.4,67.0,30.10,NE,47,13.0,13.0,52,0.00,,,0.00,weatherlink.com 1.10,2013-04-08 17:11:00,
2013-04-08 13:26:00,86.8,66.0,30.09,NNE,30,6.0,8.0,50,0.00,,,0.00,weatherlink.com 1.10,2013-04-08 17:26:00,
2013-04-08 13:41:00,86.6,66.0,30.08,ENE,58,1.0,14.0,50,0.00,,,0.00,weatherlink.com 1.10,2013-04-08 17:41:00,
2013-04-08 13:56:00,87.0,66.0,30.08,East,96,5.0,10.0,49,0.00,,,0.00,weatherlink.com 1.10,2013-04-08 17:56:00,
2013-04-08 14:41:00,85.7,64.0,30.07,NE,42,1.0,11.0,49,0.00,,,0.00,weatherlink.com 1.10,2013-04-08 18:41:00,
2013-04-08 14:56:00,85.7,68.0,30.07,WSW,257,4.0,7.0,55,0.00,,,0.00,weatherlink.com 1.10,2013-04-08 18:56:00,
2013-04-08 15:56:00,81.7,65.0,30.05,West,281,7.0,15.0,58,0.00,,,0.00,weatherlink.com 1.10,2013-04-08 19:56:00,
2013-04-08 16:11:00,82.1,66.0,30.04,SW,226,6.0,11.0,59,0.00,,,0.00,weatherlink.com 1.10,2013-04-08 20:11:00,
2013-04-08 16:26:00,82.1,67.0,30.04,West,264,3.0,10.0,60,0.00,,,0.00,weatherlink.com 1.10,2013-04-08 20:26:00,
2013-04-08 16:41:00,81.8,67.0,30.04,WSW,254,7.0,11.0,61,0.00,,,0.00,weatherlink.com 1.10,2013-04-08 20:41:00,
2013-04-08 16:56:00,81.6,67.0,30.04,SSW,208,5.0,11.0,62,0.00,,,0.00,weatherlink.com 1.10,2013-04-08 20:56:00,
2013-04-08 17:11:00,81.8,67.0,30.04,WSW,249,8.0,11.0,61,0.00,,,0.00,weatherlink.com 1.10,2013-04-08 21:11:00,
2013-04-08 17:26:00,81.1,67.0,30.04,WSW,249,9.0,11.0,63,0.00,,,0.00,weatherlink.com 1.10,2013-04-08 21:26:00,
2013-04-08 17:41:00,80.2,67.0,30.05,SW,216,4.0,11.0,65,0.00,,,0.00,weatherlink.com 1.10,2013-04-08 21:41:00,
2013-04-08 17:56:00,79.6,67.0,30.05,South,180,6.0,10.0,66,0.00,,,0.00,weatherlink.com 1.10,2013-04-08 21:56:00,
2013-04-08 18:11:00,79.3,68.0,30.05,SW,233,5.0,9.0,68,0.00,,,0.00,weatherlink.com 1.10,2013-04-08 22:11:00,
2013-04-08 18:26:00,79.0,68.0,30.05,South,185,5.0,8.0,69,0.00,,,0.00,weatherlink.com 1.10,2013-04-08 22:26:00,
2013-04-08 18:41:00,78.7,69.0,30.05,South,190,5.0,7.0,71,0.00,,,0.00,weatherlink.com 1.10,2013-04-08 22:41:00,
2013-04-08 18:56:00,78.3,69.0,30.05,WSW,243,4.0,9.0,72,0.00,,,0.00,weatherlink.com 1.10,2013-04-08 22:56:00,
2013-04-08 19:11:00,78.1,69.0,30.05,SSW,192,5.0,8.0,73,0.00,,,0.00,weatherlink.com 1.10,2013-04-08 23:11:00,
2013-04-08 19:26:00,77.2,68.0,30.06,SSW,199,6.0,6.0,74,0.00,,,0.00,weatherlink.com 1.10,2013-04-08 23:26:00,
2013-04-08 19:56:00,76.2,69.0,30.06,SSW,196,1.0,5.0,77,0.00,,,0.00,weatherlink.com 1.10,2013-04-08 23:56:00,
2013-04-08 20:11:00,75.9,69.0,30.07,SSW,196,3.0,5.0,78,0.00,,,0.00,weatherlink.com 1.10,2013-04-09 00:11:00,
2013-04-08 20:26:00,75.5,69.0,30.07,SSW,196,3.0,5.0,80,0.00,,,0.00,weatherlink.com 1.10,2013-04-09 00:26:00,
2013-04-08 20:41:00,75.4,69.0,30.07,SSW,196,0.0,3.0,81,0.00,,,0.00,weatherlink.com 1.10,2013-04-09 00:41:00,
2013-04-08 20:56:00,75.3,69.0,30.09,SSW,196,0.0,2.0,81,0.00,,,0.00,weatherlink.com 1.10,2013-04-09 00:56:00,
2013-04-08 21:11:00,75.3,69.0,30.09,SSW,196,0.0,0.0,81,0.00,,,0.00,weatherlink.com 1.10,2013-04-09 01:11:00,
2013-04-08 21:26:00,75.2,69.0,30.10,SSW,196,0.0,0.0,81,0.00,,,0.00,weatherlink.com 1.10,2013-04-09 01:26:00,
2013-04-08 21:41:00,75.1,69.0,30.10,SSW,196,0.0,0.0,81,0.00,,,0.00,weatherlink.com 1.10,2013-04-09 01:41:00,
2013-04-08 21:56:00,75.1,69.0,30.11,SSW,196,0.0,0.0,82,0.00,,,0.00,weatherlink.com 1.10,2013-04-09 01:56:00,
2013-04-08 22:11:00,75.0,69.0,30.11,SSW,196,1.0,1.0,82,0.00,,,0.00,weatherlink.com 1.10,2013-04-09 02:11:00,
2013-04-08 22:41:00,74.7,70.0,30.12,South,180,2.0,5.0,84,0.00,,,0.00,weatherlink.com 1.10,2013-04-09 02:41:00,
2013-04-08 22:56:00,73.8,65.0,30.12,ENE,74,10.0,12.0,75,0.00,,,0.00,weatherlink.com 1.10,2013-04-09 02:56:00,
2013-04-08 23:11:00,73.8,65.0,30.12,ENE,67,4.0,9.0,73,0.00,,,0.00,weatherlink.com 1.10,2013-04-09 03:11:00,
2013-04-08 23:26:00,73.4,64.0,30.12,ENE,61,2.0,8.0,72,0.00,,,0.00,weatherlink.com 1.10,2013-04-09 03:26:00,
2013-04-08 23:41:00,72.8,64.0,30.12,NE,56,5.0,10.0,73,0.00,,,0.00,weatherlink.com 1.10,2013-04-09 03:41:00,
2013-04-08 23:56:00,72.4,63.0,30.12,ENE,74,7.0,9.0,73,0.00,,,0.00,weatherlink.com 1.10,2013-04-09 03:56:00,